| time (UTC) | temp C | wind direction | speed KPH | gust KPH | rain 1hr cm | rain 24hr cm | rain mn cm | humidity % | barometer mb |
| 20260506160053 | 26 | 90 | 1.6 | 16.1 | 0.00 | 0.00 | 0.00 | 68 | 1017.2 |
| 20260506155542 | 26 | 0 | 3.2 | 16.1 | 0.00 | 0.00 | 0.00 | 68 | 1017.2 |
| 20260506155041 | 25 | 234 | 4.8 | 9.7 | 0.00 | 0.00 | 0.00 | 67 | 1017.2 |
| 20260506154608 | 26 | 0 | 1.6 | 8.0 | 0.00 | 0.00 | 0.00 | 68 | 1017.2 |
| 20260506154040 | 26 | 190 | 1.6 | 8.0 | 0.00 | 0.00 | 0.00 | 67 | 1017.2 |
| 20260506153540 | 26 | 0 | 1.6 | 8.0 | 0.00 | 0.00 | 0.00 | 69 | 1017.3 |
| 20260506153046 | 25 | 160 | 3.2 | 8.0 | 0.00 | 0.00 | 0.00 | 66 | 1017.2 |
| 20260506152536 | 26 | 0 | 1.6 | 11.3 | 0.00 | 0.00 | 0.00 | 69 | 1017.2 |
| 20260506152035 | 25 | 171 | 1.6 | 11.3 | 0.00 | 0.00 | 0.00 | 66 | 1017.1 |
| 20260506151547 | 26 | 171 | 3.2 | 8.0 | 0.00 | 0.00 | 0.00 | 65 | 1017.2 |
| 20260506151036 | 26 | 187 | 1.6 | 9.7 | 0.00 | 0.00 | 0.00 | 66 | 1017.1 |
| 20260506150536 | 26 | 201 | 1.6 | 9.7 | 0.00 | 0.00 | 0.00 | 67 | 1017.2 |
| 20260506150050 | 26 | 165 | 3.2 | 9.7 | 0.00 | 0.00 | 0.00 | 64 | 1017.1 |
| 20260506145536 | 26 | 156 | 1.6 | 9.7 | 0.00 | 0.00 | 0.00 | 63 | 1017.1 |
| 20260506145035 | 26 | 175 | 1.6 | 9.7 | 0.00 | 0.00 | 0.00 | 65 | 1017.1 |
| 20260506144556 | 26 | 0 | 1.6 | 11.3 | 0.00 | 0.00 | 0.00 | 64 | 1017.0 |
| 20260506144035 | 26 | 259 | 1.6 | 11.3 | 0.00 | 0.00 | 0.00 | 63 | 1016.8 |
| 20260506143536 | 25 | 220 | 1.6 | 9.7 | 0.00 | 0.00 | 0.00 | 63 | 1016.8 |
| 20260506143053 | 25 | 202 | 3.2 | 9.7 | 0.00 | 0.00 | 0.00 | 61 | 1016.7 |
| 20260506142540 | 25 | 136 | 1.6 | 14.5 | 0.00 | 0.00 | 0.00 | 60 | 1016.7 |
| 20260506142039 | 25 | 227 | 1.6 | 14.5 | 0.00 | 0.00 | 0.00 | 64 | 1016.7 |
| 20260506141548 | 25 | 217 | 3.2 | 11.3 | 0.00 | 0.00 | 0.00 | 63 | 1016.8 |
| 20260506141038 | 25 | 167 | 3.2 | 9.7 | 0.00 | 0.00 | 0.00 | 65 | 1017.0 |
| 20260506140540 | 25 | 257 | 3.2 | 11.3 | 0.00 | 0.00 | 0.00 | 65 | 1016.9 |
| 20260506140047 | 25 | 266 | 1.6 | 11.3 | 0.00 | 0.00 | 0.00 | 63 | 1016.8 |
| 20260506135538 | 25 | 217 | 1.6 | 11.3 | 0.00 | 0.00 | 0.00 | 64 | 1016.8 |
| 20260506135036 | 25 | 0 | 1.6 | 14.5 | 0.00 | 0.00 | 0.00 | 66 | 1016.8 |
| 20260506134551 | 24 | 188 | 3.2 | 14.5 | 0.00 | 0.00 | 0.00 | 67 | 1016.6 |
| 20260506134036 | 24 | 265 | 1.6 | 9.7 | 0.00 | 0.00 | 0.00 | 67 | 1016.6 |
| 20260506133535 | 24 | 233 | 1.6 | 9.7 | 0.00 | 0.00 | 0.00 | 68 | 1016.7 |
| 20260506133102 | 23 | 186 | 3.2 | 11.3 | 0.00 | 0.00 | 0.00 | 68 | 1016.6 |
| 20260506132539 | 23 | 105 | 1.6 | 11.3 | 0.00 | 0.00 | 0.00 | 68 | 1016.6 |
| 20260506132037 | 23 | 182 | 1.6 | 9.7 | 0.00 | 0.00 | 0.00 | 70 | 1016.6 |
| 20260506131548 | 23 | 227 | 1.6 | 6.4 | 0.00 | 0.00 | 0.00 | 70 | 1016.7 |
| 20260506131037 | 23 | 133 | 1.6 | 16.1 | 0.00 | 0.00 | 0.00 | 73 | 1016.5 |
| 20260506130539 | 22 | 151 | 1.6 | 16.1 | 0.00 | 0.00 | 0.00 | 73 | 1016.5 |
| 20260506130119 | 22 | 184 | 3.2 | 9.7 | 0.00 | 0.00 | 0.00 | 74 | 1016.5 |
| 20260506125538 | 22 | 176 | 3.2 | 8.0 | 0.00 | 0.00 | 0.00 | 75 | 1016.4 |
| 20260506125038 | 22 | 198 | 1.6 | 8.0 | 0.00 | 0.00 | 0.00 | 76 | 1016.3 |
| 20260506124546 | 22 | 180 | 1.6 | 12.9 | 0.00 | 0.00 | 0.00 | 77 | 1016.3 |
| 20260506124036 | 21 | 215 | 3.2 | 12.9 | 0.00 | 0.00 | 0.00 | 77 | 1016.4 |
| 20260506123536 | 21 | 223 | 1.6 | 9.7 | 0.00 | 0.00 | 0.00 | 78 | 1016.3 |
| 20260506123050 | 21 | 163 | 1.6 | 8.0 | 0.00 | 0.00 | 0.00 | 79 | 1016.2 |
| 20260506122536 | 21 | 139 | 0.0 | 8.0 | 0.00 | 0.00 | 0.00 | 80 | 1016.3 |
| 20260506122036 | 21 | 0 | 1.6 | 8.0 | 0.00 | 0.00 | 0.00 | 81 | 1016.4 |
| 20260506121550 | 21 | 0 | 0.0 | 4.8 | 0.00 | 0.00 | 0.00 | 81 | 1016.5 |
| 20260506121036 | 20 | 202 | 0.0 | 4.8 | 0.00 | 0.00 | 0.00 | 82 | 1016.4 |
| 20260506120536 | 20 | 198 | 1.6 | 4.8 | 0.00 | 0.00 | 0.00 | 84 | 1016.5 |
| 20260506120052 | 20 | 0 | 0.0 | 3.2 | 0.00 | 0.00 | 0.00 | 86 | 1016.4 |
| 20260506115536 | 19 | 0 | 0.0 | 3.2 | 0.00 | 0.00 | 0.00 | 87 | 1016.4 |
| 20260506115040 | 18 | 0 | 0.0 | 0.0 | 0.00 | 0.00 | 0.00 | 87 | 1016.4 |
| 20260506114549 | 18 | 0 | 0.0 | 0.0 | 0.00 | 0.00 | 0.00 | 88 | 1016.2 |
| 20260506114039 | 17 | 0 | 0.0 | 0.0 | 0.00 | 0.00 | 0.00 | 89 | 1016.1 |
| 20260506113536 | 17 | 0 | 0.0 | 0.0 | 0.00 | 0.00 | 0.00 | 89 | 1016.1 |
| 20260506113046 | 16 | 0 | 0.0 | 0.0 | 0.00 | 0.00 | 0.00 | 89 | 1016.2 |
| 20260506112537 | 16 | 0 | 0.0 | 0.0 | 0.00 | 0.00 | 0.00 | 89 | 1016.0 |
| 20260506112038 | 16 | 0 | 0.0 | 0.0 | 0.00 | 0.00 | 0.00 | 90 | 1015.9 |
| 20260506111546 | 16 | 0 | 0.0 | 0.0 | 0.00 | 0.00 | 0.00 | 90 | 1015.9 |
| 20260506111036 | 15 | 0 | 0.0 | 0.0 | 0.00 | 0.00 | 0.00 | 90 | 1016.0 |
| 20260506110536 | 15 | 0 | 0.0 | 0.0 | 0.00 | 0.00 | 0.00 | 90 | 1016.1 |
| 20260506110050 | 15 | 0 | 0.0 | 0.0 | 0.00 | 0.00 | 0.00 | 90 | 1016.0 |
| 20260506105536 | 15 | 0 | 0.0 | 0.0 | 0.00 | 0.00 | 0.00 | 90 | 1016.0 |
| 20260506105040 | 15 | 0 | 0.0 | 0.0 | 0.00 | 0.00 | 0.00 | 90 | 1016.0 |
| 20260506104610 | 15 | 0 | 0.0 | 0.0 | 0.00 | 0.00 | 0.00 | 90 | 1016.1 |
| 20260506104035 | 15 | 0 | 0.0 | 0.0 | 0.00 | 0.00 | 0.00 | 89 | 1016.0 |
| 20260506103540 | 15 | 0 | 0.0 | 0.0 | 0.00 | 0.00 | 0.00 | 89 | 1015.8 |
| 20260506103046 | 15 | 0 | 0.0 | 0.0 | 0.00 | 0.00 | 0.00 | 90 | 1015.8 |
| 20260506102537 | 15 | 0 | 0.0 | 0.0 | 0.00 | 0.00 | 0.00 | 90 | 1015.7 |
| 20260506102039 | 15 | 0 | 0.0 | 0.0 | 0.00 | 0.00 | 0.00 | 90 | 1015.9 |
| 20260506101549 | 15 | 0 | 0.0 | 0.0 | 0.00 | 0.00 | 0.00 | 89 | 1015.8 |
| 20260506101036 | 15 | 0 | 0.0 | 0.0 | 0.00 | 0.00 | 0.00 | 89 | 1015.7 |
| 20260506100538 | 15 | 0 | 0.0 | 0.0 | 0.00 | 0.00 | 0.00 | 89 | 1015.9 |
| 20260506100050 | 15 | 0 | 0.0 | 0.0 | 0.00 | 0.00 | 0.00 | 89 | 1015.8 |
| 20260506095536 | 15 | 0 | 0.0 | 0.0 | 0.00 | 0.00 | 0.00 | 89 | 1015.7 |
| 20260506095035 | 15 | 0 | 0.0 | 0.0 | 0.00 | 0.00 | 0.00 | 89 | 1015.7 |
| 20260506094549 | 15 | 0 | 0.0 | 0.0 | 0.00 | 0.00 | 0.00 | 89 | 1015.7 |
| 20260506094035 | 15 | 0 | 0.0 | 0.0 | 0.00 | 0.00 | 0.00 | 89 | 1015.8 |
| 20260506093537 | 15 | 0 | 0.0 | 0.0 | 0.00 | 0.00 | 0.00 | 89 | 1015.7 |
| 20260506093051 | 15 | 0 | 0.0 | 0.0 | 0.00 | 0.00 | 0.00 | 89 | 1015.9 |
| 20260506092536 | 15 | 0 | 0.0 | 0.0 | 0.00 | 0.00 | 0.00 | 89 | 1015.8 |
| 20260506092036 | 15 | 0 | 0.0 | 0.0 | 0.00 | 0.00 | 0.00 | 89 | 1015.9 |
| 20260506091548 | 15 | 0 | 0.0 | 0.0 | 0.00 | 0.00 | 0.00 | 89 | 1015.8 |
| 20260506091038 | 15 | 0 | 0.0 | 0.0 | 0.00 | 0.00 | 0.00 | 89 | 1015.9 |
| 20260506090539 | 15 | 0 | 0.0 | 0.0 | 0.00 | 0.00 | 0.00 | 89 | 1015.9 |
| 20260506090048 | 15 | 0 | 0.0 | 0.0 | 0.00 | 0.00 | 0.00 | 89 | 1016.0 |
| 20260506085538 | 15 | 0 | 0.0 | 0.0 | 0.00 | 0.00 | 0.00 | 89 | 1015.9 |
| 20260506085036 | 15 | 0 | 0.0 | 0.0 | 0.00 | 0.00 | 0.00 | 89 | 1015.9 |
| 20260506084547 | 15 | 0 | 0.0 | 0.0 | 0.00 | 0.00 | 0.00 | 89 | 1016.0 |
| 20260506084035 | 15 | 0 | 0.0 | 0.0 | 0.00 | 0.00 | 0.00 | 88 | 1016.1 |
| 20260506083539 | 15 | 0 | 0.0 | 0.0 | 0.00 | 0.00 | 0.00 | 88 | 1016.2 |
| 20260506083050 | 15 | 0 | 0.0 | 0.0 | 0.00 | 0.00 | 0.00 | 88 | 1016.0 |
| 20260506082536 | 15 | 0 | 0.0 | 0.0 | 0.00 | 0.00 | 0.00 | 88 | 1016.1 |
| 20260506082036 | 15 | 0 | 0.0 | 0.0 | 0.00 | 0.00 | 0.00 | 88 | 1016.0 |
| 20260506081545 | 15 | 0 | 0.0 | 0.0 | 0.00 | 0.00 | 0.00 | 88 | 1016.1 |
| 20260506081039 | 15 | 0 | 0.0 | 0.0 | 0.00 | 0.00 | 0.00 | 88 | 1016.0 |
| 20260506080538 | 15 | 0 | 0.0 | 0.0 | 0.00 | 0.00 | 0.00 | 88 | 1015.9 |
| 20260506073051 | 15 | 0 | 0.0 | 0.0 | 0.00 | 0.00 | 0.00 | 88 | 1015.6 |
| 20260506072536 | 15 | 0 | 0.0 | 0.0 | 0.00 | 0.00 | 0.00 | 88 | 1015.6 |
| 20260506072040 | 15 | 0 | 0.0 | 0.0 | 0.00 | 0.00 | 0.00 | 88 | 1015.6 |
| 20260506071554 | 15 | 0 | 0.0 | 0.0 | 0.00 | 0.00 | 0.00 | 88 | 1015.5 |
| 20260506071036 | 15 | 0 | 0.0 | 0.0 | 0.00 | 0.00 | 0.00 | 88 | 1015.5 |
| 20260506070537 | 15 | 0 | 0.0 | 0.0 | 0.00 | 0.00 | 0.00 | 88 | 1015.5 |
| 20260506062036 | 15 | 0 | 0.0 | 0.0 | 0.00 | 0.00 | 0.00 | 87 | 1016.0 |
| 20260506061551 | 15 | 0 | 0.0 | 0.0 | 0.00 | 0.00 | 0.00 | 87 | 1015.8 |
| 20260506061039 | 15 | 0 | 0.0 | 0.0 | 0.00 | 0.00 | 0.00 | 87 | 1015.9 |
| 20260506060541 | 15 | 0 | 0.0 | 0.0 | 0.00 | 0.00 | 0.00 | 87 | 1015.9 |
| 20260506051036 | 15 | 0 | 0.0 | 0.0 | 0.00 | 0.00 | 0.00 | 85 | 1016.5 |
| 20260506050539 | 15 | 0 | 0.0 | 0.0 | 0.00 | 0.00 | 0.00 | 85 | 1016.5 |
| 20260506045036 | 16 | 0 | 0.0 | 0.0 | 0.00 | 0.00 | 0.00 | 84 | 1016.5 |
| 20260506044600 | 16 | 0 | 0.0 | 0.0 | 0.00 | 0.00 | 0.00 | 84 | 1016.6 |
| 20260506044036 | 16 | 0 | 0.0 | 0.0 | 0.00 | 0.00 | 0.00 | 84 | 1016.7 |
| 20260506043536 | 16 | 0 | 0.0 | 0.0 | 0.00 | 0.00 | 0.00 | 84 | 1016.8 |
| 20260506043053 | 16 | 0 | 0.0 | 0.0 | 0.00 | 0.00 | 0.00 | 83 | 1016.8 |
| 20260506042536 | 16 | 0 | 0.0 | 0.0 | 0.00 | 0.00 | 0.00 | 83 | 1016.7 |
| 20260506042037 | 16 | 0 | 0.0 | 0.0 | 0.00 | 0.00 | 0.00 | 82 | 1016.9 |
| 20260506041545 | 16 | 0 | 0.0 | 0.0 | 0.00 | 0.00 | 0.00 | 82 | 1016.8 |
| 20260506041035 | 16 | 0 | 0.0 | 0.0 | 0.00 | 0.00 | 0.00 | 82 | 1016.8 |
| 20260506040539 | 17 | 0 | 0.0 | 0.0 | 0.00 | 0.00 | 0.00 | 81 | 1016.6 |
| 20260506040050 | 17 | 0 | 0.0 | 0.0 | 0.00 | 0.00 | 0.00 | 81 | 1016.9 |
| 20260506035536 | 17 | 0 | 0.0 | 0.0 | 0.00 | 0.00 | 0.00 | 80 | 1016.8 |
| 20260506035036 | 17 | 0 | 0.0 | 0.0 | 0.00 | 0.00 | 0.00 | 79 | 1016.8 |
| 20260506034547 | 17 | 0 | 0.0 | 0.0 | 0.00 | 0.00 | 0.00 | 78 | 1016.8 |
| 20260506034037 | 17 | 0 | 0.0 | 0.0 | 0.00 | 0.00 | 0.00 | 77 | 1016.7 |
| 20260506033536 | 18 | 0 | 0.0 | 3.2 | 0.00 | 0.00 | 0.00 | 77 | 1016.7 |
| 20260506033047 | 18 | 0 | 0.0 | 3.2 | 0.00 | 0.00 | 0.00 | 77 | 1016.7 |
| 20260506032536 | 17 | 136 | 0.0 | 0.0 | 0.00 | 0.00 | 0.00 | 77 | 1016.7 |
| 20260506032037 | 17 | 0 | 0.0 | 1.6 | 0.00 | 0.00 | 0.00 | 76 | 1016.7 |
| 20260506031552 | 18 | 0 | 0.0 | 1.6 | 0.00 | 0.00 | 0.00 | 76 | 1016.8 |
| 20260506031038 | 18 | 0 | 0.0 | 1.6 | 0.00 | 0.00 | 0.00 | 75 | 1016.7 |
| 20260506030537 | 18 | 0 | 0.0 | 1.6 | 0.00 | 0.00 | 0.00 | 75 | 1016.7 |
| 20260506030048 | 18 | 0 | 0.0 | 0.0 | 0.00 | 0.00 | 0.00 | 74 | 1016.8 |
| 20260506025535 | 18 | 0 | 0.0 | 1.6 | 0.00 | 0.00 | 0.00 | 74 | 1016.9 |
| 20260506025036 | 18 | 0 | 0.0 | 3.2 | 0.00 | 0.00 | 0.00 | 74 | 1016.9 |
| 20260506024555 | 18 | 0 | 0.0 | 3.2 | 0.00 | 0.00 | 0.00 | 74 | 1017.0 |
| 20260506024036 | 18 | 0 | 0.0 | 3.2 | 0.00 | 0.00 | 0.00 | 74 | 1017.0 |
| 20260506023537 | 18 | 0 | 0.0 | 0.0 | 0.00 | 0.00 | 0.00 | 74 | 1017.1 |
| 20260506023048 | 17 | 0 | 0.0 | 0.0 | 0.00 | 0.00 | 0.00 | 75 | 1017.1 |
| 20260506022536 | 17 | 0 | 0.0 | 0.0 | 0.00 | 0.00 | 0.00 | 75 | 1017.2 |
| 20260506022036 | 17 | 0 | 0.0 | 0.0 | 0.00 | 0.00 | 0.00 | 76 | 1017.2 |
| 20260506021554 | 17 | 0 | 0.0 | 0.0 | 0.00 | 0.00 | 0.00 | 76 | 1017.2 |
| 20260506021036 | 17 | 0 | 0.0 | 0.0 | 0.00 | 0.00 | 0.00 | 76 | 1017.2 |
| 20260506020535 | 18 | 0 | 0.0 | 0.0 | 0.00 | 0.00 | 0.00 | 75 | 1017.1 |
| 20260506020047 | 18 | 0 | 0.0 | 1.6 | 0.00 | 0.00 | 0.00 | 73 | 1017.2 |
| 20260506015536 | 18 | 0 | 0.0 | 1.6 | 0.00 | 0.00 | 0.00 | 73 | 1017.1 |
| 20260506015037 | 18 | 0 | 0.0 | 3.2 | 0.00 | 0.00 | 0.00 | 72 | 1016.8 |
| 20260506014547 | 18 | 0 | 0.0 | 3.2 | 0.00 | 0.00 | 0.00 | 72 | 1017.0 |
| 20260506014039 | 18 | 178 | 1.6 | 6.4 | 0.00 | 0.00 | 0.00 | 72 | 1016.7 |
| 20260506013536 | 18 | 134 | 0.0 | 6.4 | 0.00 | 0.00 | 0.00 | 72 | 1016.6 |
| 20260506013048 | 18 | 0 | 0.0 | 3.2 | 0.00 | 0.00 | 0.00 | 72 | 1016.8 |
| 20260506012539 | 18 | 0 | 0.0 | 3.2 | 0.00 | 0.00 | 0.00 | 72 | 1016.9 |
| 20260506012036 | 18 | 175 | 0.0 | 3.2 | 0.00 | 0.00 | 0.00 | 72 | 1016.6 |
| 20260506011549 | 18 | 0 | 0.0 | 3.2 | 0.00 | 0.00 | 0.00 | 71 | 1016.7 |
| 20260506011040 | 18 | 194 | 0.0 | 3.2 | 0.00 | 0.00 | 0.00 | 72 | 1016.8 |
| 20260506010536 | 18 | 0 | 0.0 | 3.2 | 0.00 | 0.00 | 0.00 | 72 | 1017.1 |
| 20260506010055 | 19 | 0 | 0.0 | 4.8 | 0.00 | 0.00 | 0.00 | 72 | 1016.9 |
| 20260506005536 | 19 | 0 | 0.0 | 4.8 | 0.00 | 0.00 | 0.00 | 73 | 1016.7 |
| 20260506005039 | 19 | 0 | 0.0 | 3.2 | 0.00 | 0.00 | 0.00 | 73 | 1016.5 |
| 20260506004547 | 19 | 134 | 0.0 | 4.8 | 0.00 | 0.00 | 0.00 | 72 | 1016.5 |
| 20260506004036 | 19 | 0 | 0.0 | 4.8 | 0.00 | 0.00 | 0.00 | 72 | 1016.5 |
| 20260506003538 | 20 | 187 | 0.0 | 4.8 | 0.00 | 0.00 | 0.00 | 71 | 1016.7 |
| 20260506003046 | 20 | 192 | 1.6 | 4.8 | 0.00 | 0.00 | 0.00 | 71 | 1016.6 |
| 20260506002536 | 20 | 0 | 0.0 | 6.4 | 0.00 | 0.00 | 0.00 | 71 | 1016.7 |
| 20260506002036 | 20 | 0 | 1.6 | 6.4 | 0.00 | 0.00 | 0.00 | 70 | 1016.7 |
| 20260506001546 | 20 | 156 | 0.0 | 6.4 | 0.00 | 0.00 | 0.00 | 70 | 1016.8 |
| 20260506001036 | 20 | 0 | 0.0 | 6.4 | 0.00 | 0.00 | 0.00 | 69 | 1017.0 |
| 20260506000536 | 20 | 151 | 1.6 | 8.0 | 0.00 | 0.00 | 0.00 | 68 | 1016.7 |
| 20260506000046 | 20 | 152 | 0.0 | 8.0 | 0.00 | 0.00 | 0.00 | 68 | 1016.7 |
| 20260505235536 | 20 | 159 | 1.6 | 6.4 | 0.00 | 0.00 | 0.00 | 68 | 1016.8 |
| 20260505235036 | 20 | 153 | 0.0 | 8.0 | 0.00 | 0.00 | 0.00 | 67 | 1016.8 |
| 20260505234607 | 21 | 0 | 1.6 | 8.0 | 0.00 | 0.00 | 0.00 | 67 | 1016.7 |
| 20260505234037 | 21 | 156 | 1.6 | 8.0 | 0.00 | 0.00 | 0.00 | 66 | 1016.6 |
| 20260505233537 | 21 | 161 | 1.6 | 11.3 | 0.00 | 0.00 | 0.00 | 64 | 1016.5 |
| 20260505233049 | 21 | 167 | 3.2 | 11.3 | 0.00 | 0.00 | 0.00 | 63 | 1016.5 |
| 20260505232540 | 21 | 202 | 3.2 | 11.3 | 0.00 | 0.00 | 0.00 | 62 | 1016.5 |
| 20260505232036 | 21 | 163 | 3.2 | 11.3 | 0.00 | 0.00 | 0.00 | 62 | 1016.4 |
| 20260505231547 | 21 | 178 | 3.2 | 11.3 | 0.00 | 0.00 | 0.00 | 61 | 1016.4 |
| 20260505231042 | 21 | 179 | 1.6 | 9.7 | 0.00 | 0.00 | 0.00 | 61 | 1016.6 |
| 20260505230539 | 21 | 0 | 1.6 | 12.9 | 0.00 | 0.00 | 0.00 | 61 | 1016.7 |
| 20260505230049 | 22 | 147 | 3.2 | 12.9 | 0.00 | 0.00 | 0.00 | 60 | 1016.7 |
| 20260505225539 | 22 | 0 | 1.6 | 9.7 | 0.00 | 0.00 | 0.00 | 61 | 1016.7 |
| 20260505225036 | 22 | 193 | 1.6 | 9.7 | 0.00 | 0.00 | 0.00 | 63 | 1016.6 |
| 20260505224552 | 22 | 127 | 1.6 | 8.0 | 0.00 | 0.00 | 0.00 | 62 | 1016.6 |
| 20260505224039 | 22 | 148 | 3.2 | 9.7 | 0.00 | 0.00 | 0.00 | 60 | 1016.6 |
| 20260505223539 | 22 | 134 | 3.2 | 11.3 | 0.00 | 0.00 | 0.00 | 59 | 1016.8 |
| 20260505223104 | 23 | 130 | 1.6 | 11.3 | 0.00 | 0.00 | 0.00 | 60 | 1016.7 |
| 20260505222536 | 22 | 154 | 1.6 | 8.0 | 0.00 | 0.00 | 0.00 | 60 | 1016.7 |
| 20260505222036 | 23 | 178 | 1.6 | 8.0 | 0.00 | 0.00 | 0.00 | 59 | 1016.8 |
| 20260505221550 | 22 | 145 | 3.2 | 8.0 | 0.00 | 0.00 | 0.00 | 62 | 1016.8 |
| 20260505221035 | 22 | 145 | 0.0 | 19.3 | 0.00 | 0.00 | 0.00 | 63 | 1016.8 |
| 20260505220536 | 22 | 81 | 3.2 | 19.3 | 0.00 | 0.00 | 0.00 | 61 | 1016.8 |
| 20260505220048 | 22 | 130 | 1.6 | 11.3 | 0.00 | 0.00 | 0.00 | 61 | 1016.8 |
| 20260505215537 | 22 | 198 | 3.2 | 9.7 | 0.00 | 0.00 | 0.00 | 61 | 1016.9 |
| 20260505215037 | 22 | 110 | 3.2 | 14.5 | 0.00 | 0.00 | 0.00 | 61 | 1016.9 |
| 20260505214559 | 22 | 134 | 3.2 | 14.5 | 0.00 | 0.00 | 0.00 | 61 | 1016.9 |
| 20260505214037 | 22 | 165 | 3.2 | 14.5 | 0.00 | 0.00 | 0.00 | 62 | 1016.9 |
| 20260505213537 | 22 | 133 | 1.6 | 8.0 | 0.00 | 0.00 | 0.00 | 64 | 1017.0 |
| 20260505213054 | 22 | 107 | 1.6 | 8.0 | 0.00 | 0.00 | 0.00 | 64 | 1017.2 |
| 20260505212536 | 22 | 202 | 3.2 | 14.5 | 0.00 | 0.00 | 0.00 | 62 | 1017.1 |
| 20260505212038 | 23 | 165 | 1.6 | 14.5 | 0.00 | 0.00 | 0.00 | 63 | 1017.1 |
| 20260505211556 | 23 | 161 | 3.2 | 8.0 | 0.00 | 0.00 | 0.00 | 59 | 1017.1 |
| 20260505211037 | 24 | 110 | 1.6 | 8.0 | 0.00 | 0.00 | 0.00 | 62 | 1017.0 |
| 20260505210536 | 24 | 197 | 3.2 | 8.0 | 0.00 | 0.00 | 0.00 | 60 | 1016.8 |
| 20260505210048 | 24 | 197 | 3.2 | 9.7 | 0.00 | 0.00 | 0.00 | 59 | 1016.8 |
| 20260505205536 | 24 | 150 | 3.2 | 11.3 | 0.00 | 0.00 | 0.00 | 59 | 1016.7 |
| 20260505205036 | 24 | 54 | 3.2 | 11.3 | 0.00 | 0.00 | 0.00 | 60 | 1016.8 |
| 20260505204545 | 23 | 173 | 3.2 | 12.9 | 0.00 | 0.00 | 0.00 | 59 | 1016.8 |
| 20260505204036 | 24 | 167 | 3.2 | 12.9 | 0.00 | 0.00 | 0.00 | 59 | 1016.9 |
| 20260505203536 | 24 | 162 | 3.2 | 12.9 | 0.00 | 0.00 | 0.00 | 58 | 1016.9 |
| 20260505203113 | 24 | 232 | 3.2 | 14.5 | 0.00 | 0.00 | 0.00 | 59 | 1016.9 |
| 20260505202539 | 24 | 186 | 3.2 | 19.3 | 0.00 | 0.00 | 0.00 | 59 | 1017.0 |
| 20260505202039 | 24 | 159 | 3.2 | 19.3 | 0.00 | 0.00 | 0.00 | 58 | 1017.1 |
| 20260505201552 | 23 | 163 | 1.6 | 14.5 | 0.00 | 0.00 | 0.00 | 59 | 1017.0 |
| 20260505201039 | 24 | 209 | 3.2 | 12.9 | 0.00 | 0.00 | 0.00 | 58 | 1017.1 |
| 20260505200537 | 24 | 355 | 4.8 | 12.9 | 0.00 | 0.00 | 0.00 | 56 | 1017.2 |
| 20260505200048 | 24 | 94 | 3.2 | 14.5 | 0.00 | 0.00 | 0.00 | 58 | 1017.2 |
| 20260505195539 | 24 | 197 | 3.2 | 14.5 | 0.00 | 0.00 | 0.00 | 58 | 1017.2 |
| 20260505195035 | 24 | 101 | 3.2 | 12.9 | 0.00 | 0.00 | 0.00 | 59 | 1017.4 |
| 20260505194548 | 24 | 159 | 3.2 | 12.9 | 0.00 | 0.00 | 0.00 | 57 | 1017.5 |
| 20260505194037 | 23 | 214 | 4.8 | 16.1 | 0.00 | 0.00 | 0.00 | 57 | 1017.6 |
| 20260505193540 | 23 | 100 | 3.2 | 16.1 | 0.00 | 0.00 | 0.00 | 58 | 1017.7 |
| 20260505193047 | 24 | 143 | 1.6 | 12.9 | 0.00 | 0.00 | 0.00 | 56 | 1017.9 |
| 20260505192540 | 24 | 234 | 3.2 | 12.9 | 0.00 | 0.00 | 0.00 | 58 | 1017.9 |
| 20260505192036 | 25 | 165 | 3.2 | 9.7 | 0.00 | 0.00 | 0.00 | 57 | 1018.0 |
| 20260505191551 | 25 | 176 | 3.2 | 9.7 | 0.00 | 0.00 | 0.00 | 55 | 1018.0 |
| 20260505191036 | 25 | 148 | 3.2 | 14.5 | 0.00 | 0.00 | 0.00 | 56 | 1018.0 |
| 20260505190536 | 24 | 180 | 3.2 | 16.1 | 0.00 | 0.00 | 0.00 | 58 | 1018.0 |
| 20260505190051 | 23 | 77 | 6.4 | 16.1 | 0.00 | 0.00 | 0.00 | 58 | 1018.0 |
| 20260505185539 | 24 | 162 | 6.4 | 14.5 | 0.00 | 0.00 | 0.00 | 55 | 1018.0 |
| 20260505185037 | 25 | 146 | 3.2 | 12.9 | 0.00 | 0.00 | 0.00 | 55 | 1018.0 |
| 20260505184551 | 25 | 151 | 4.8 | 12.9 | 0.00 | 0.00 | 0.00 | 54 | 1018.2 |
| 20260505184040 | 25 | 147 | 3.2 | 11.3 | 0.00 | 0.00 | 0.00 | 55 | 1018.1 |
| 20260505183537 | 25 | 173 | 3.2 | 16.1 | 0.00 | 0.00 | 0.00 | 54 | 1018.1 |
| 20260505183052 | 24 | 98 | 3.2 | 16.1 | 0.00 | 0.00 | 0.00 | 56 | 1017.9 |
| 20260505182540 | 24 | 175 | 3.2 | 14.5 | 0.00 | 0.00 | 0.00 | 56 | 1017.8 |
| 20260505182036 | 24 | 142 | 3.2 | 14.5 | 0.00 | 0.00 | 0.00 | 55 | 1017.8 |
| 20260505181547 | 24 | 116 | 3.2 | 16.1 | 0.00 | 0.00 | 0.00 | 52 | 1017.8 |
| 20260505181044 | 23 | 225 | 6.4 | 16.1 | 0.00 | 0.00 | 0.00 | 55 | 1018.0 |
| 20260505180539 | 24 | 203 | 3.2 | 12.9 | 0.00 | 0.00 | 0.00 | 56 | 1018.1 |
| 20260505180056 | 24 | 196 | 4.8 | 11.3 | 0.00 | 0.00 | 0.00 | 55 | 1018.0 |
| 20260505175540 | 24 | 160 | 3.2 | 11.3 | 0.00 | 0.00 | 0.00 | 57 | 1017.9 |
| 20260505175036 | 25 | 169 | 3.2 | 11.3 | 0.00 | 0.00 | 0.00 | 57 | 1018.1 |
| 20260505174548 | 25 | 166 | 3.2 | 11.3 | 0.00 | 0.00 | 0.00 | 57 | 1018.0 |
| 20260505174037 | 24 | 153 | 3.2 | 16.1 | 0.00 | 0.00 | 0.00 | 57 | 1017.8 |
| 20260505173537 | 24 | 66 | 3.2 | 16.1 | 0.00 | 0.00 | 0.00 | 61 | 1017.8 |
| 20260505173049 | 24 | 109 | 3.2 | 14.5 | 0.00 | 0.00 | 0.00 | 55 | 1018.0 |
| 20260505172536 | 24 | 195 | 3.2 | 14.5 | 0.00 | 0.00 | 0.00 | 56 | 1018.1 |
| 20260505172036 | 24 | 212 | 4.8 | 14.5 | 0.00 | 0.00 | 0.00 | 59 | 1018.4 |
| 20260505171546 | 24 | 148 | 3.2 | 12.9 | 0.00 | 0.00 | 0.00 | 58 | 1018.5 |
| 20260505171036 | 24 | 0 | 4.8 | 14.5 | 0.00 | 0.00 | 0.00 | 57 | 1018.4 |
| 20260505170537 | 24 | 122 | 3.2 | 14.5 | 0.00 | 0.00 | 0.00 | 58 | 1018.5 |
| 20260505170048 | 24 | 109 | 3.2 | 12.9 | 0.00 | 0.00 | 0.00 | 60 | 1018.4 |
| 20260505165538 | 23 | 153 | 4.8 | 11.3 | 0.00 | 0.00 | 0.00 | 59 | 1018.6 |
| 20260505165037 | 24 | 111 | 4.8 | 11.3 | 0.00 | 0.00 | 0.00 | 58 | 1018.6 |
| 20260505164549 | 24 | 169 | 3.2 | 12.9 | 0.00 | 0.00 | 0.00 | 57 | 1018.7 |
| 20260505164037 | 24 | 186 | 3.2 | 14.5 | 0.00 | 0.00 | 0.00 | 58 | 1018.8 |
| 20260505163537 | 23 | 170 | 6.4 | 14.5 | 0.00 | 0.00 | 0.00 | 58 | 1018.7 |
| 20260505163049 | 24 | 185 | 3.2 | 9.7 | 0.00 | 0.00 | 0.00 | 60 | 1018.7 |
| 20260505162539 | 24 | 281 | 3.2 | 8.0 | 0.00 | 0.00 | 0.00 | 59 | 1018.7 |
| 20260505162036 | 24 | 178 | 3.2 | 11.3 | 0.00 | 0.00 | 0.00 | 58 | 1018.7 |
| 20260505161547 | 23 | 109 | 3.2 | 11.3 | 0.00 | 0.00 | 0.00 | 58 | 1018.7 |
| 20260505161038 | 24 | 156 | 3.2 | 9.7 | 0.00 | 0.00 | 0.00 | 57 | 1018.8 |
| 20260505160537 | 24 | 113 | 3.2 | 14.5 | 0.00 | 0.00 | 0.00 | 58 | 1018.9 |